Regional Weather Roundup
Issued by NWS Jackson, KY

Home | Current Version | Previous Version | Graphics & Text | Print | Product List | Glossary On
Versions: 1 2 3 4 5 6 7 8 9 10 11 12 13 14 15 16 17 18 19 20 21 22 23 24 25 26 27 28 29 30 31 32 33 34 35 36 37 38 39 40 41 42 43 44 45 46 47 48 49 50
000
ASUS43 KJKL 010011
RWRJKL

EAST KENTUCKY HOURLY WEATHER ROUNDUP
NATIONAL WEATHER SERVICE JACKSON KY
800 PM EDT THU JUL 31 2014

NOTE: "FAIR" INDICATES FEW OR NO CLOUDS BELOW 12,000 FEET WITH
NO SIGNIFICANT WEATHER AND/OR OBSTRUCTIONS TO VISIBILITY.

* THESE REPORTS ARE NOT UNDER NWS QUALITY CONTROL AND MAY NOT
  REPORT WEATHER SUCH AS PRECIPITATION AND FOG.

KYZ079-080-083-085-087-088-110-112-115-119-120-010100
...EASTERN KENTUCKY...

CITY           SKY/WX    TMP DP  RH WIND       PRES   REMARKS
JACKSON        CLEAR     75  56  51 CALM      30.11S
6HR MIN TEMP:  75; 6HR MAX TEMP:  82;

LONDON         CLEAR     77  59  53 NE3       30.11R
6HR MIN TEMP:  77; 6HR MAX TEMP:  83;

SOMERSET*      PTCLDY    75  61  60 CALM      30.10S
MONTICELLO*    PTCLDY    74  66  75 CALM      30.11R
6HR MIN TEMP:  74; 6HR MAX TEMP:  84;

MIDDLESBORO*   PTCLDY    74  65  74 CALM      30.10S
6HR MIN TEMP:  74; 6HR MAX TEMP:  83;

HARLAN APT*    MOCLDY    72  61  68 MISG      30.12R
BLACK MTN*       N/A     63  57  82 CALM        N/A
PIKEVILLE APT* CLEAR     73  63  68 N3        30.11S
BIG SANDY*     PTCLDY    74  62  65 CALM      30.11S
6HR MIN TEMP:  74; 6HR MAX TEMP:  81;

MOREHEAD APT*    N/A     77  61  57 CALM      30.12R
$$

KYZ035-036-041-042-044-050-067-078-099-010100
...CENTRAL KENTUCKY...

CITY           SKY/WX    TMP DP  RH WIND       PRES   REMARKS
MT STERLING*   CLEAR     77  61  57 CALM      30.11S
FLEMING/MASON* CLEAR     77  59  53 S3        30.10S
DANVILLE*      PTCLDY    73  61  64 CALM      30.10S
RICHMOND*      PTCLDY    77  61  57 CALM      30.09S
LEXINGTON      CLEAR     78  61  55 SW3       30.09S
6HR MIN TEMP:  78; 6HR MAX TEMP:  83;

FRANKFORT      PTCLDY    78  58  49 W3        30.07S
6HR MIN TEMP:  78; 6HR MAX TEMP:  82;

$$

KYZ091>093-OHZ055-061-077-WVZ005-015-034-035-042-010100
...SOUTHERN OHIO/WEST VIRGINIA...

CITY           SKY/WX    TMP DP  RH WIND       PRES   REMARKS
COVINGTON      MOCLDY    75  60  59 S3        30.08S
COLUMBUS       PTCLDY    80  57  45 SW7       30.07S
DAYTON         CLEAR     77  60  55 W7        30.09S
WILMINGTON     PTCLDY    77  57  50 CALM      30.08S
HUNTINGTON     CLEAR     77  60  55 CALM      30.08S
CHARLESTON     PTCLDY    77  66  68 CALM      30.09S
PINEVILLE*     MOCLDY    74  65  72 MISG      30.19R
BECKLEY        PTCLDY    74  54  49 N6        30.17R
BLUEFIELD      CLOUDY    66  61  84 N3        30.21R HAZE
$$

VAZ002-007-008-TNZ017-027-036-066-071-010100
...SOUTHWEST VIRGINIA/EAST TENNESSEE...

CITY           SKY/WX    TMP DP  RH WIND       PRES   REMARKS
WISE*          PTCLDY    72  57  60 S3        30.19R
JONESVILLE*    PTCLDY    77  64  65 CALM      30.13R
ABINGDON*      MOCLDY    74  62  66 S3        30.16S
BRISTOL        MOCLDY    74  58  57 SE3       30.14R
KNOXVILLE      CLOUDY    77  63  61 SE6       30.07S
OAK RIDGE      MOCLDY    80  60  50 S3        30.09S
CROSSVILLE     CLOUDY    74  60  61 E3        30.12S
NASHVILLE      CLOUDY    82  55  39 NE5       30.06S
$$

...KEY TO REMARKS...
VSB - VISIBILITY IN MILES
WCI - WIND CHILL INDEX
HX  - HEAT INDEX

$$


USA.gov is the U.S. government's official web portal to all federal, state and local government web resources and services.